Location: Saluda
(35.2377°N, 82.3468°W)
Time: 17:28:41
(UTC+00:00)

Transit 2A - Pass Details

Date: 12 October 2022
Orbit: 598 x 959 km, 66.7° (Epoch: 06 December)

Event Time Altitude Azimuth Distance (km) Brightness Sun altitude
Rises 10:54:19 0° 339° (NNW) 3,024 8.8 -8.7°
Reaches altitude 10° 10:56:36 10° 345° (NNW) 2,155 8.2 -8.2°
Maximum altitude 11:01:23 50° 61° (ENE) 942 6.9 -7.3°
Drops below altitude 10° 11:06:39 10° 136° (SE) 2,377 9.3 -6.2°
Sets 11:09:16 0° 142° (SE) 3,366 10.0 -5.7°
